Date,TemperatureHighF,TemperatureAvgF,TemperatureLowF,DewpointHighF,DewpointAvgF,DewpointLowF,HumidityHigh,HumidityAvg,HumidityLow,PressureMaxIn,PressureMinIn,WindSpeedMaxMPH,WindSpeedAvgMPH,GustSpeedMaxMPH,PrecipitationSumIn
2014-1-1,31,25,18,21,17,10,84,72,65,30.40,30.23,7,1,9,0.00
2014-1-2,27,20,12,21,16,9,90,84,77,30.22,29.71,12,2,12,0.00
2014-1-3,15,10,2,12,5,-5,90,78,57,30.48,29.69,18,3,29,0.00
2014-1-4,26,11,-5,13,3,-9,86,72,51,30.52,30.30,8,1,11,0.00
2014-1-5,45,21,4,45,18,0,98,89,74,30.31,29.72,6,1,11,0.51
2014-1-6,56,38,8,56,31,-7,99,78,44,29.83,29.35,14,6,34,0.25
2014-1-7,8,4,-1,-5,-10,-15,65,54,45,30.39,29.84,18,8,28,0.25
2014-1-8,18,11,4,8,1,-5,76,64,52,30.57,30.39,10,3,15,0.00
2014-1-9,32,20,13,15,12,7,88,72,47,30.66,30.50,5,1,9,0.00
2014-1-10,33,29,24,32,25,15,95,86,68,30.57,30.19,3,0,3,0.10
2014-1-11,60,48,32,60,48,31,99,97,88,30.18,29.28,14,3,24,0.55
2014-1-12,47,40,30,43,32,27,85,73,61,30.06,29.41,10,4,21,0.55
2014-1-13,51,39,25,37,32,24,95,76,59,30.11,29.85,6,1,12,0.00
2014-1-14,47,44,38,44,41,37,97,89,69,29.85,29.67,7,1,13,0.37
2014-1-15,38,34,27,38,34,26,98,98,96,29.97,29.85,3,0,5,0.04
2014-1-16,35,32,26,35,31,25,98,95,85,29.96,29.84,6,0,8,0.01
2014-1-17,40,30,22,31,26,21,96,87,68,29.96,29.86,8,1,8,0.01
2014-1-18,36,29,22,33,25,15,96,86,74,29.88,29.71,8,2,15,0.10
2014-1-19,31,24,18,24,18,13,83,78,72,29.86,29.66,11,4,19,0.10
2014-1-20,38,32,27,31,25,18,82,75,68,29.90,29.60,10,3,15,0.01
2014-1-21,26,17,10,17,11,3,88,78,62,30.00,29.85,7,1,12,0.02
2014-1-22,16,7,0,3,-5,-9,75,59,41,30.03,29.85,11,4,22,0.00
2014-1-23,19,9,0,7,0,-6,83,69,49,30.32,30.03,10,2,17,0.00
2014-1-24,20,11,4,2,-1,-4,82,60,42,30.41,30.05,13,4,18,0.00
2014-1-25,22,18,14,18,11,1,89,76,56,30.03,29.44,8,2,16,0.00
2014-1-26,23,18,11,16,6,-1,89,62,47,29.89,29.50,16,4,19,0.00
2014-1-27,36,23,16,28,12,-1,87,64,38,30.09,29.61,19,3,24,0.05
2014-1-28,16,12,7,3,-2,-6,73,55,40,30.39,30.10,8,2,13,0.05
2014-1-29,21,13,6,3,-2,-7,78,53,36,30.30,30.12,14,3,18,0.00
2014-1-30,28,16,2,8,2,-4,79,57,40,30.47,30.18,6,2,10,0.00
2014-1-31,31,24,18,20,14,6,81,66,59,30.23,30.11,5,1,10,0.00
2014-2-1,45,34,22,30,23,19,88,67,43,30.32,30.01,7,1,14,0.03
2014-2-2,43,36,26,36,31,25,95,84,73,30.09,29.92,5,1,7,0.03
2014-2-3,38,30,21,32,28,18,94,89,75,30.32,30.07,5,1,8,0.00
2014-2-4,34,23,10,25,18,7,92,82,65,30.48,30.22,5,0,7,0.27
2014-2-5,32,29,25,31,28,22,96,93,82,30.25,29.65,6,1,10,0.02
2014-2-6,30,22,15,21,16,12,90,80,66,30.30,30.02,7,1,10,0.10
2014-2-7,28,18,15,17,14,12,91,83,63,30.33,30.24,10,2,14,0.01
2014-2-8,26,22,17,15,10,6,76,60,44,30.24,30.16,5,1,5,0.01
2014-2-9,30,20,11,21,14,8,92,77,51,30.20,30.00,7,1,9,0.01
2014-2-10,30,20,12,17,10,5,92,67,44,30.29,30.01,9,2,17,0.01
2014-2-11,26,15,4,7,4,-1,85,64,41,30.49,30.28,9,2,12,0.01
2014-2-12,26,15,0,14,5,-4,85,66,43,30.57,30.28,5,1,10,0.00
2014-2-13,32,26,17,31,24,15,96,93,85,30.27,29.12,11,3,22,0.00
2014-2-14,38,32,25,29,27,21,96,81,65,29.76,29.12,16,5,26,0.23
2014-2-15,34,29,23,30,25,14,95,85,68,29.81,29.62,12,2,24,0.03
2014-2-16,27,21,15,14,11,7,72,65,49,30.15,29.82,9,3,14,0.03
2014-2-17,34,22,13,10,7,4,71,55,29,30.41,30.16,10,2,15,0.06
2014-2-18,36,28,22,30,22,9,93,79,56,30.30,29.97,10,2,17,0.11
2014-2-19,39,30,18,37,28,16,96,90,78,30.09,29.70,6,1,10,0.48
2014-2-20,50,38,25,34,28,23,92,69,44,30.26,29.98,7,2,10,0.08
2014-2-21,46,38,32,46,37,31,98,96,86,29.99,29.63,6,1,10,0.25
2014-2-22,52,40,30,32,27,24,97,64,34,30.03,29.90,15,3,23,0.01
2014-2-23,52,40,26,31,29,23,92,68,45,30.01,29.83,7,2,12,0.01
2014-2-24,38,31,24,31,18,10,79,58,42,30.09,29.82,17,4,27,0.00
2014-2-25,30,23,17,18,13,10,77,64,51,30.08,29.94,13,3,20,0.00
2014-2-26,30,21,11,20,8,-2,88,61,34,29.97,29.83,16,3,22,0.01
2014-2-27,28,16,4,13,3,-11,80,58,36,30.12,29.64,14,5,30,0.01
2014-2-28,22,12,3,2,-4,-11,73,49,37,30.41,30.13,7,2,14,0.00
2014-3-1,33,20,4,19,8,-1,85,62,41,30.42,30.14,7,1,9,0.00
2014-3-2,39,32,26,27,20,14,70,62,57,30.14,29.99,6,1,9,0.00
2014-3-3,26,18,12,13,4,-2,68,53,44,30.35,30.02,11,3,16,0.00
2014-3-4,27,18,7,12,4,-3,73,57,36,30.42,30.24,6,1,15,0.00
2014-3-5,37,27,21,15,12,9,74,55,35,30.45,30.20,11,2,15,0.00
2014-3-6,32,22,13,11,3,-3,65,47,28,30.63,30.46,10,2,21,0.00
2014-3-7,40,30,19,27,20,11,75,67,59,30.46,29.93,5,1,9,0.00
2014-3-8,54,39,24,34,30,23,94,71,47,29.93,29.79,9,2,18,0.00
2014-3-9,44,37,33,31,22,15,75,56,33,30.03,29.89,9,2,20,0.00
2014-3-10,49,40,32,32,27,20,76,59,51,29.93,29.59,10,3,14,0.00
2014-3-11,62,47,35,41,36,30,82,66,46,29.68,29.56,7,2,15,0.00
2014-3-12,54,41,25,43,36,17,96,82,62,29.65,29.01,10,1,31,0.38
2014-3-13,26,20,15,16,5,0,72,53,37,30.09,29.29,21,7,29,0.38
2014-3-14,45,31,14,26,14,0,68,51,36,30.20,29.86,11,2,18,0.00
2014-3-15,55,47,39,35,28,24,62,49,36,30.00,29.74,13,5,24,0.00
2014-3-16,39,30,26,23,12,3,61,46,36,30.19,30.01,13,3,16,0.00
2014-3-17,30,24,20,10,4,1,52,44,34,30.14,30.05,8,2,13,0.00
2014-3-18,45,31,19,20,9,3,71,43,19,30.27,30.11,6,1,15,0.00
2014-3-19,40,33,24,37,30,19,96,87,73,30.28,29.82,7,2,16,0.83
2014-3-20,51,42,36,43,32,21,98,72,43,29.91,29.74,16,5,27,0.84
2014-3-21,51,41,30,25,23,21,73,51,33,30.03,29.90,19,4,22,0.00
2014-3-22,62,45,29,38,29,23,81,55,30,30.01,29.76,17,4,21,0.00
2014-3-23,40,34,24,27,20,8,66,57,42,30.15,29.98,8,2,17,0.00
2014-3-24,33,24,17,9,6,4,64,48,33,30.26,30.11,11,3,16,0.00
2014-3-25,37,28,16,22,16,9,83,62,41,30.16,29.86,10,1,16,0.00
2014-3-26,33,28,22,24,12,6,82,52,35,30.25,29.80,19,5,34,0.00
2014-3-27,43,30,17,21,11,6,67,47,30,30.41,30.23,10,3,13,0.00
2014-3-28,56,43,32,51,38,21,95,81,57,30.22,29.95,12,2,17,0.10
2014-3-29,49,45,41,48,43,39,97,92,82,30.16,29.64,13,2,17,1.10
2014-3-30,46,42,37,45,40,33,96,92,84,29.70,29.51,16,3,23,0.31
2014-3-31,53,42,34,36,32,30,89,69,47,30.07,29.71,19,5,24,0.01
2014-4-1,60,46,29,38,33,26,91,62,39,30.13,29.95,5,1,10,0.01
2014-4-2,60,46,38,44,39,35,89,77,54,30.12,30.01,5,1,9,0.00
2014-4-3,66,52,40,44,30,23,93,48,20,30.13,29.94,8,1,11,0.03
2014-4-4,45,41,39,43,39,38,95,93,87,30.03,29.74,13,3,21,0.17
2014-4-5,52,43,37,41,33,24,97,72,47,30.08,29.73,19,4,27,0.17
2014-4-6,60,44,29,28,23,19,78,48,21,30.20,30.08,7,2,12,0.00
2014-4-7,50,42,32,45,34,23,96,75,36,30.18,29.64,11,2,19,0.43
2014-4-8,61,52,45,55,44,35,99,78,51,29.64,29.40,19,4,26,0.01
2014-4-9,62,48,35,39,32,27,92,59,30,30.01,29.63,16,3,23,0.01
2014-4-10,66,49,29,38,32,21,89,54,33,30.19,29.99,14,3,23,0.00
2014-4-11,70,57,49,54,46,36,96,67,49,30.01,29.92,16,2,17,0.07
2014-4-12,73,56,40,49,43,39,97,66,33,30.22,30.00,10,2,14,0.08
2014-4-13,80,65,50,57,50,36,86,60,40,30.15,29.92,12,3,20,0.00
2014-4-14,75,68,61,59,56,55,84,67,50,29.96,29.77,16,5,34,0.00
2014-4-15,65,54,33,63,52,31,96,90,75,29.91,29.47,13,4,22,1.30